JCSAT-12 (JCSAT-RA)

Last updated on Wed Sep 09 2026 00:02:58 GMT+0000 (Coordinated Universal Time)

1 35755U 09044A 26250.46364088 -.00000347 00000+0 00000+0 0 9999 2 35755 0.0415 283.2344 0001665 299.3451 62.9247 1.00271703 62430
UTC large
Height (km)
Speed (km/s)
/
Latitude / Longitude
Inclination (degrees)
Orbital Period (minutes)
Azimuth
Elevation
Range (km)
Doppler Factor

Next 0 passes for location: London (51.5072 / 0.1276)

No passes found over London.
JCSAT-12 (JCSAT-RA)